Terminal Aerodrome Forecast
Issued by NWS

Home | Current Version | Previous Version | Text Only | Print | Product List | Glossary On
Versions: 1 2 3 4 5 6 7 8 9 10 11 12 13 14 15 16 17 18 19 20 21 22 23 24 25 26 27 28 29 30 31 32 33 34 35 36 37 38 39 40 41 42 43 44
000
FTUS41 KCTP 121145 AAA
TAFBFD
TAF AMD
KBFD 121145Z 1212/1312 VRB02KT 4SM BR SCT060
     FM121230 23006KT P6SM FEW050 SCT200
     FM130900 19004KT P6SM VCSH BKN035 OVC150=

USA.gov is the U.S. government's official web portal to all federal, state and local government web resources and services.